Panakton, Greece

7:09 AM EET on February 25, 2017 (GMT +0200)
Elefsis Air Base

Weather History for LGEL - October, 2012

Change the Weather History Date:

Thursday, October 18, 2012

  Actual Average Record
Temperature  
Mean Temperature 74 °F -  
Max Temperature 84 °F 67 °F 87 °F (2014)
Min Temperature 64 °F 52 °F 44 °F (2011)
Cooling Degree Days 9    
Growing Degree Days 24 (Base 50)    
Moisture  
Dew Point 57 °F    
Average Humidity 54    
Maximum Humidity 83    
Minimum Humidity 33    
Precipitation  
Precipitation 0.00 in - - ()
Sea Level Pressure  
Sea Level Pressure 30.09 in    
Wind  
Wind Speed 4 mph ()    
Max Wind Speed 14 mph    
Max Gust Speed -    
Visibility 6.2 miles    
Events      
Averages and records for this station are not official NWS values.
T = Trace of Precipitation, MM = Missing Value Source: Averaged Metar Reports

Daily Weather History Graph

Daily Weather History Graph

Search for Another Location

Airport or City:

Trip Planner

Search our weather history database for the weather conditions in past years. The results will help you decide how hot, cold, wet, or windy it might be!

Date:

Astronomy

Oct. 18, 2012 Rise Set
Actual Time 7:37 AM EEST 6:43 PM EEST
Civil Twilight 7:10 AM EEST 7:10 PM EEST
Nautical Twilight 6:40 AM EEST 7:40 PM EEST
Astronomical Twilight 6:09 AM EEST 8:11 PM EEST
Moon 10:55 AM EEST (10/18) 9:02 PM EEST (10/18)
Length of Visible Light 11h 59m
Length of Day
11h 06m
Waxing Crescent, 12% of the Moon is Illuminated
Oct 18
Waxing Crescent
Oct 22
First Quarter
Oct 29
Full
Nov 7
Last Quarter
Nov 14
New

Hourly Weather History & Observations

Time (EEST) Temp. Heat Index Dew Point Humidity Pressure Visibility Wind Dir Wind Speed Gust Speed Precip Events Conditions
12:50 AM 71.6 °F - 59.0 °F 64% 30.09 in 6.2 mi Calm Calm - N/A   Partly Cloudy
1:50 AM 69.8 °F - 59.0 °F 68% 30.09 in 6.2 mi Calm Calm - N/A   Partly Cloudy
2:50 AM 68.0 °F - 59.0 °F 73% 30.09 in 6.2 mi Calm Calm - N/A   Partly Cloudy
3:50 AM 68.0 °F - 59.0 °F 73% 30.09 in 6.2 mi Calm Calm - N/A   Partly Cloudy
4:50 AM 68.0 °F - 59.0 °F 73% 30.09 in 6.2 mi Calm Calm - N/A   Partly Cloudy
5:50 AM 68.0 °F - 59.0 °F 73% 30.09 in 6.2 mi Calm Calm - N/A   Partly Cloudy
6:20 AM 66.2 °F - 59.0 °F 78% 30.09 in 6.2 mi Calm Calm - N/A   Partly Cloudy
6:50 AM 66.2 °F - 57.2 °F 73% 30.09 in - Calm Calm - N/A   Clear
7:20 AM 64.4 °F - 59.0 °F 83% 30.09 in - NW 6.9 mph - N/A   Clear
7:50 AM 66.2 °F - 59.0 °F 78% 30.09 in - Calm Calm - N/A   Clear
8:20 AM 68.0 °F - 59.0 °F 73% 30.09 in - Calm Calm - N/A   Clear
8:50 AM 71.6 °F - 60.8 °F 69% 30.09 in - Calm Calm - N/A   Clear
9:20 AM 75.2 °F - 64.4 °F 69% 30.09 in - Calm Calm - N/A   Clear
9:50 AM 77.0 °F - 57.2 °F 50% 30.09 in - North 5.8 mph - N/A   Clear
10:20 AM 78.8 °F - 55.4 °F 44% 30.12 in - NNW 5.8 mph - N/A   Clear
10:50 AM 80.6 °F 80.5 °F 55.4 °F 42% 30.12 in - NNW 6.9 mph - N/A   Clear
11:20 AM 82.4 °F 81.4 °F 53.6 °F 37% 30.12 in - NNW 8.1 mph - N/A   Clear
11:50 AM 82.4 °F - 51.8 °F 35% 30.12 in - North 6.9 mph - N/A   Clear
12:20 PM 84.2 °F 82.8 °F 53.6 °F 35% 30.12 in - North 9.2 mph - N/A   Clear
12:50 PM 84.2 °F 82.8 °F 53.6 °F 35% 30.09 in 6.2 mi NW 6.9 mph - N/A   Partly Cloudy
1:20 PM 84.2 °F - 51.8 °F 33% 30.09 in 6.2 mi NW 8.1 mph - N/A   Partly Cloudy
1:50 PM 84.2 °F - 51.8 °F 33% 30.09 in 6.2 mi NW 9.2 mph - N/A   Partly Cloudy
2:20 PM 84.2 °F 82.8 °F 53.6 °F 35% 30.09 in 6.2 mi NW 8.1 mph - N/A   Partly Cloudy
2:50 PM 84.2 °F 83.0 °F 55.4 °F 37% 30.06 in 6.2 mi North 9.2 mph - N/A   Scattered Clouds
3:20 PM 84.2 °F 83.0 °F 55.4 °F 37% 30.06 in 6.2 mi North 11.5 mph - N/A   Scattered Clouds
3:50 PM 84.2 °F 83.5 °F 57.2 °F 40% 30.06 in 6.2 mi North 10.4 mph - N/A   Scattered Clouds
4:20 PM 84.2 °F 83.5 °F 57.2 °F 40% 30.06 in 6.2 mi North 10.4 mph - N/A   Scattered Clouds
4:50 PM 82.4 °F 82.0 °F 57.2 °F 42% 30.06 in 6.2 mi North 11.5 mph - N/A   Partly Cloudy
5:20 PM 80.6 °F 80.8 °F 57.2 °F 45% 30.06 in 6.2 mi North 13.8 mph - N/A   Partly Cloudy
5:50 PM 80.6 °F 80.5 °F 55.4 °F 42% 30.06 in - North 11.5 mph - N/A   Clear
6:20 PM 78.8 °F - 55.4 °F 44% 30.06 in - North 10.4 mph - N/A   Clear
6:50 PM 77.0 °F - 55.4 °F 47% 30.06 in - NNW 9.2 mph - N/A   Clear
7:20 PM 75.2 °F - 55.4 °F 50% 30.06 in - NNW 9.2 mph - N/A   Clear
7:50 PM 75.2 °F - 53.6 °F 47% 30.09 in - NNW 9.2 mph - N/A   Clear
8:20 PM 73.4 °F - 57.2 °F 57% 30.09 in - NNW 8.1 mph - N/A   Clear
8:50 PM 73.4 °F - 57.2 °F 57% 30.09 in - NNW 9.2 mph - N/A   Clear
9:20 PM 73.4 °F - 55.4 °F 53% 30.09 in - NNW 9.2 mph - N/A   Clear
9:50 PM 71.6 °F - 55.4 °F 57% 30.12 in - NW 9.2 mph - N/A   Clear
10:20 PM 71.6 °F - 55.4 °F 57% 30.12 in - NW 11.5 mph - N/A   Clear
10:50 PM 71.6 °F - 55.4 °F 57% 30.12 in - NW 11.5 mph - N/A   Clear
11:20 PM 69.8 °F - 57.2 °F 64% 30.12 in - NNW 9.2 mph - N/A   Clear
11:50 PM 69.8 °F - 55.4 °F 60% 30.12 in - NW 9.2 mph - N/A   Clear